sat.trackr.live / text

‹ back to catalog

ONEWEB-0240

NORAD 48785 · 2021-045U

PAYLOAD ACTIVE UNKNOWN

§ Identity

Operator
Country
UK
Launch date
2021-05-28
Launch site
VOSTO
Launch vehicle
Mass (kg)
RCS (m²)

Purposes: comms

External: N2YO · Heavens-Above · Gunter

§ Orbital elements

Epoch: 2026-05-24T20:00:02.724768Z

Period
109.46 min
Inclination
87.9002°
Eccentricity
0.0001546
Mean motion
13.15549398 rev/d
Perigee alt
1,200.6 km
Apogee alt
1,202.9 km
Semi-major
7,579.9 km
B*
-2.4967e-4
RAAN
263.8343°
Arg perigee
102.6230°
Mean anomaly
257.5074°
Rev number
24,133

§ Raw data

ONEWEB-02401 48785U 21045U   26144.83336487 -.00000081  00000+0 -24967-3 0  99942 48785  87.9002 263.8343 0001546 102.6230 257.5074 13.15549398241330

JSON: /api/v1/satellites/48785 · /tle

For live sub-satellite position, see the globe view (requires WebGL).

§ Visibility from observer

Set your observer location to see the next 7 days of passes ≥ 10°. The values pass through the URL so the page stays shareable.

No JS? Fill the form by hand. The geolocation button needs JavaScript.